EW4713 Weather Reports


time (UTC)temp
C
wind
direction
speed
KPH
gust
KPH
rain 1hr
cm
rain 24hr
cm
rain mn
cm
humidity
%
barometer
mb
20260903182901 26 165 0.0 14.5 0.00 0.00 0.00 67 1006.1
20260903182402 26 222 4.8 16.1 0.00 0.00 0.00 66 1005.7
20260903181901 26 223 6.4 16.1 0.00 0.00 0.00 65 1005.7
20260903181402 26 222 4.8 11.3 0.00 0.00 0.00 65 1005.7
20260903180901 26 243 3.2 12.9 0.00 0.00 0.00 66 1005.4
20260903180402 26 276 8.0 12.9 0.00 0.00 0.00 66 1005.4
20260903175901 26 283 6.4 16.1 0.00 0.00 0.00 64 1005.7
20260903175402 25 315 4.8 16.1 0.00 0.00 0.00 66 1005.4
20260903174900 25 285 3.2 11.3 0.00 0.00 0.00 65 1005.4
20260903174403 26 281 3.2 14.5 0.00 0.00 0.00 65 1005.7
20260903173902 26 277 1.6 14.5 0.00 0.00 0.00 66 1005.7
20260903173402 25 305 6.4 17.7 0.00 0.00 0.00 65 1005.7
20260903172901 25 349 6.4 17.7 0.00 0.00 0.00 64 1005.7
20260903172402 25 334 3.2 9.7 0.00 0.00 0.00 66 1005.7
20260903171901 25 243 3.2 9.7 0.00 0.00 0.00 66 1005.7
20260903170403 25 283 9.7 14.5 0.00 0.00 0.00 64 1006.1
20260903165901 25 288 6.4 14.5 0.00 0.00 0.00 64 1006.1
20260903165402 24 326 0.0 17.7 0.00 0.00 0.00 64 1006.1
20260903164900 24 266 3.2 17.7 0.00 0.00 0.00 66 1006.1
20260903164403 24 282 8.0 14.5 0.00 0.00 0.00 64 1006.1
20260903162402 23 282 6.4 19.3 0.00 0.00 0.00 66 1006.9
20260903161859 23 270 1.6 14.5 0.00 0.00 0.00 66 1006.9
20260903161400 23 277 11.3 11.3 0.00 0.00 0.00 66 1006.9
20260903160858 23 186 0.0 9.7 0.00 0.00 0.00 67 1006.9
20260903160400 23 270 3.2 12.9 0.00 0.00 0.00 66 1006.9
20260903155858 23 322 4.8 12.9 0.00 0.00 0.00 68 1007.2
20260903155359 23 231 4.8 12.9 0.00 0.00 0.00 68 1006.9
20260903154359 22 270 3.2 9.7 0.00 0.00 0.00 68 1007.2
20260903153857 22 345 3.2 12.9 0.00 0.00 0.00 69 1006.9
20260903152358 22 329 6.4 14.5 0.00 0.00 0.00 68 1007.2
20260903151856 22 288 3.2 14.5 0.00 0.00 0.00 69 1007.2
20260903151357 22 270 3.2 9.7 0.00 0.00 0.00 71 1007.2
20260903150855 22 339 3.2 19.3 0.00 0.00 0.00 71 1007.5
20260903150358 22 322 4.8 19.3 0.00 0.00 0.00 72 1007.5
20260903145854 22 270 4.8 11.3 0.00 0.00 0.00 74 1007.2
20260903145356 21 270 3.2 11.3 0.00 0.00 0.00 73 1007.2
20260903144854 21 307 3.2 9.7 0.00 0.00 0.00 75 1007.2
20260903144355 21 312 0.0 12.9 0.00 0.00 0.00 74 1007.5
20260903143853 21 294 4.8 12.9 0.00 0.00 0.00 75 1007.5
20260903143353 21 228 3.2 12.9 0.00 0.00 0.00 75 1007.9
20260903142853 21 294 4.8 17.7 0.00 0.00 0.00 75 1007.5
20260903141854 21 270 3.2 14.5 0.00 0.00 0.00 76 1007.5
20260903141351 21 263 1.6 8.0 0.00 0.00 0.00 77 1007.9
20260903140852 21 270 1.6 8.0 0.00 0.00 0.00 77 1007.9
20260903140353 21 276 1.6 9.7 0.00 0.00 0.00 78 1008.2
20260903135333 21 320 3.2 11.3 0.00 0.00 0.00 79 1007.9
20260903134829 20 2 6.4 11.3 0.00 0.00 0.00 80 1007.9
20260903134330 20 258 3.2 6.4 0.00 0.00 0.00 80 1007.9
20260903133829 21 278 0.0 6.4 0.00 0.00 0.00 80 1008.2
20260903133331 20 345 4.8 6.4 0.00 0.00 0.00 83 1008.2
20260903132829 19 287 6.4 9.7 0.00 0.00 0.00 83 1007.9
20260903131829 18 0 0.0 6.4 0.00 0.00 0.00 86 1008.2
20260903131332 17 292 3.2 6.4 0.00 0.00 0.00 89 1007.9
20260903130829 17 285 1.6 6.4 0.00 0.00 0.00 91 1007.9
20260903125829 17 301 3.2 6.4 0.00 0.00 0.00 92 1008.2
20260903125332 16 287 4.8 8.0 0.00 0.00 0.00 92 1008.2
20260903124829 16 270 3.2 8.0 0.00 0.00 0.00 93 1007.9
20260903124332 16 0 0.0 6.4 0.00 0.00 0.00 93 1007.9
20260903123829 16 311 3.2 6.4 0.00 0.00 0.00 93 1007.9
20260903123330 16 254 0.0 6.4 0.00 0.00 0.00 94 1007.9
20260903122829 16 320 0.0 6.4 0.00 0.00 0.00 94 1008.5
20260903122332 16 261 0.0 6.4 0.00 0.00 0.00 94 1008.2
20260903121829 16 286 1.6 3.2 0.00 0.00 0.00 95 1008.2
20260903121331 15 251 0.0 6.4 0.00 0.00 0.00 94 1008.2
20260903120828 16 318 0.0 6.4 0.00 0.00 0.00 95 1008.5
20260903120333 15 257 0.0 6.4 0.00 0.00 0.00 95 1008.2
20260903115829 15 282 3.2 4.8 0.00 0.00 0.00 95 1008.2
20260903115333 15 279 3.2 8.0 0.00 0.00 0.00 96 1007.9
20260903114828 15 277 1.6 8.0 0.00 0.00 0.00 96 1008.2
20260903114331 15 276 0.0 4.8 0.00 0.00 0.00 96 1007.9
20260903113330 15 263 1.6 3.2 0.00 0.00 0.00 96 1008.2
20260903112829 15 286 0.0 3.2 0.00 0.00 0.00 96 1008.5
20260903112332 15 188 0.0 6.4 0.00 0.00 0.00 95 1008.2
20260903111829 15 270 3.2 8.0 0.00 0.00 0.00 95 1008.5
20260903111334 15 270 0.0 8.0 0.00 0.00 0.00 95 1007.9
20260903110829 15 279 0.0 3.2 0.00 0.00 0.00 95 1008.2
20260903110332 16 315 0.0 4.8 0.00 0.00 0.00 95 1008.2
20260903105828 16 270 1.6 6.4 0.00 0.00 0.00 95 1008.2
20260903105332 15 286 0.0 8.0 0.00 0.00 0.00 95 1008.2
20260903104829 16 292 0.0 8.0 0.00 0.00 0.00 95 1008.5
20260903104331 15 294 3.2 6.4 0.00 0.00 0.00 96 1008.2
20260903103829 15 270 0.0 3.2 0.00 0.00 0.00 96 1008.2
20260903102829 15 270 0.0 6.4 0.00 0.00 0.00 96 1008.2
20260903101331 15 270 0.0 4.8 0.00 0.00 0.00 96 1008.5
20260903100830 15 270 0.0 6.4 0.00 0.00 0.00 96 1008.2
20260903100330 15 279 0.0 6.4 0.00 0.00 0.00 96 1008.5
20260903095829 15 260 3.2 4.8 0.00 0.00 0.00 96 1008.5
20260903095337 15 270 0.0 4.8 0.00 0.00 0.00 96 1008.5
20260903094829 15 289 3.2 3.2 0.00 0.00 0.00 97 1008.2
20260903093830 15 285 0.0 3.2 0.00 0.00 0.00 97 1008.5
20260903093332 15 262 1.6 3.2 0.00 0.00 0.00 97 1008.2
20260903092829 15 270 0.0 3.2 0.00 0.00 0.00 97 1008.5
20260903091828 15 270 0.0 4.8 0.00 0.00 0.00 97 1008.2
20260903091331 15 279 0.0 4.8 0.00 0.00 0.00 97 1008.2
20260903090829 15 287 3.2 6.4 0.00 0.00 0.00 97 1008.2
20260903090331 15 258 0.0 6.4 0.00 0.00 0.00 96 1008.2
20260903085829 15 278 0.0 6.4 0.00 0.00 0.00 96 1008.2
20260903084828 15 336 0.0 4.8 0.00 0.00 0.00 98 1008.2
20260903084330 15 294 0.0 3.2 0.00 0.00 0.00 98 1008.2
20260903083829 15 278 1.6 3.2 0.00 0.00 0.00 98 1008.2
20260903083332 15 303 3.2 3.2 0.00 0.00 0.00 98 1008.2
20260903082829 15 278 1.6 3.2 0.00 0.00 0.00 98 1008.2
20260903082331 15 278 0.0 3.2 0.00 0.00 0.00 98 1008.5
20260903081828 15 255 1.6 3.2 0.00 0.00 0.00 98 1008.5
20260903081333 15 306 0.0 3.2 0.00 0.00 0.00 98 1008.5
20260903080829 15 278 0.0 1.6 0.00 0.00 0.00 98 1009.0
20260903080332 15 286 0.0 1.6 0.00 0.00 0.00 97 1008.5
20260903075829 15 276 0.0 1.6 0.00 0.00 0.00 97 1008.5
20260903075331 15 334 0.0 1.6 0.00 0.00 0.00 97 1008.5
20260903074828 15 270 0.0 1.6 0.00 0.00 0.00 97 1008.5
20260903074331 15 270 0.0 3.2 0.00 0.00 0.00 96 1008.5
20260903073828 15 300 0.0 3.2 0.00 0.00 0.00 96 1008.5
20260903073331 15 276 3.2 3.2 0.00 0.00 0.00 96 1008.5
20260903072331 15 299 0.0 4.8 0.00 0.00 0.00 96 1009.0
20260903071827 15 270 1.6 3.2 0.00 0.00 0.00 97 1008.5
20260903071329 15 255 0.0 3.2 0.00 0.00 0.00 96 1008.5
20260903070826 15 261 0.0 3.2 0.00 0.00 0.00 96 1008.5
20260903070329 15 270 0.0 3.2 0.00 0.00 0.00 96 1008.5
20260903065825 15 270 1.6 1.6 0.00 0.00 0.00 96 1008.5
20260903065327 15 270 0.0 3.2 0.00 0.00 0.00 96 1009.0
20260903064825 15 270 0.0 3.2 0.00 0.00 0.00 96 1009.0
20260903064328 15 270 0.0 1.6 0.00 0.00 0.00 95 1009.0
20260903063824 16 285 0.0 1.6 0.00 0.00 0.00 95 1009.0
20260903063327 16 262 1.6 3.2 0.00 0.00 0.00 94 1008.5
20260903062324 15 262 0.0 3.2 0.00 0.00 0.00 97 1009.0
20260903061823 15 270 0.0 3.2 0.00 0.00 0.00 98 1009.0
20260903061326 15 264 0.0 3.2 0.00 0.00 0.00 98 1009.0
20260903060822 15 270 0.0 1.6 0.00 0.00 0.00 98 1009.0
20260903060325 15 246 1.6 3.2 0.00 0.00 0.00 99 1009.0
20260903055822 15 270 0.0 3.2 0.00 0.00 0.00 99 1009.0
20260903055329 15 270 0.0 3.2 0.00 0.00 0.00 99 1009.0
20260903054821 15 254 0.0 3.2 0.00 0.00 0.00 99 1009.3
20260903054322 15 270 0.0 1.6 0.00 0.00 0.00 99 1009.3
20260903053820 15 270 0.0 1.6 0.00 0.00 0.00 99 1009.0
20260903053323 15 255 0.0 1.6 0.00 0.00 0.00 99 1009.0
20260903052325 15 261 0.0 0.0 0.00 0.00 0.00 99 1009.3
20260903051820 15 261 0.0 0.0 0.00 0.00 0.00 98 1009.3
20260903051322 15 261 0.0 0.0 0.00 0.00 0.00 98 1009.3
20260903050819 15 261 0.0 0.0 0.00 0.00 0.00 98 1009.7
20260903045819 15 261 0.0 0.0 0.00 0.00 0.00 98 1009.0
20260903044322 15 261 0.0 0.0 0.00 0.00 0.00 98 1009.3
20260903043817 15 261 0.0 0.0 0.00 0.00 0.00 98 1009.3
20260903043322 15 261 0.0 0.0 0.00 0.00 0.00 97 1009.3
20260903042816 15 261 0.0 0.0 0.00 0.00 0.00 97 1009.7
20260903042320 15 261 0.0 0.0 0.00 0.00 0.00 97 1009.3
20260903041816 15 261 0.0 0.0 0.00 0.00 0.00 97 1009.7
20260903041320 15 261 0.0 0.0 0.00 0.00 0.00 96 1009.7
20260903040815 15 188 0.0 0.0 0.00 0.00 0.00 96 1009.3
20260903040320 15 188 0.0 0.0 0.00 0.00 0.00 96 1009.7
20260903035814 15 188 0.0 0.0 0.00 0.00 0.00 96 1009.7
20260903035319 16 188 0.0 0.0 0.00 0.00 0.00 96 1009.7
20260903034814 16 188 0.0 0.0 0.00 0.00 0.00 95 1009.7
20260903034320 16 188 0.0 0.0 0.00 0.00 0.00 95 1009.7
20260903033813 16 188 0.0 0.0 0.00 0.00 0.00 95 1009.7
20260903033322 16 188 0.0 0.0 0.00 0.00 0.00 95 1009.3
20260903032813 16 188 0.0 0.0 0.00 0.00 0.00 95 1009.7
20260903032318 16 188 0.0 0.0 0.00 0.00 0.00 94 1009.3
20260903031813 16 188 0.0 0.0 0.00 0.00 0.00 94 1009.7
20260903031315 16 188 0.0 0.0 0.00 0.00 0.00 94 1009.7
20260903030315 16 188 0.0 0.0 0.00 0.00 0.00 93 1009.7
20260903025811 16 188 0.0 0.0 0.00 0.00 0.00 93 1009.7
20260903025314 16 188 0.0 0.0 0.00 0.00 0.00 93 1009.3
20260903024810 16 188 0.0 0.0 0.00 0.00 0.00 92 1009.7
20260903023314 17 188 0.0 0.0 0.00 0.00 0.00 91 1009.7
20260903022809 17 188 0.0 0.0 0.00 0.00 0.00 91 1009.3
20260903022310 17 188 0.0 0.0 0.00 0.00 0.00 90 1009.3
20260903021808 17 188 0.0 0.0 0.00 0.00 0.00 90 1009.7
20260903021311 17 188 0.0 0.0 0.00 0.00 0.00 90 1009.7
20260903020808 17 188 0.0 0.0 0.00 0.00 0.00 89 1009.3
20260903015808 17 188 0.0 0.0 0.00 0.00 0.00 88 1009.7
20260903014807 17 188 0.0 0.0 0.00 0.00 0.00 87 1009.3
20260903014309 17 188 0.0 0.0 0.00 0.00 0.00 87 1009.3
20260903013309 18 188 0.0 0.0 0.00 0.00 0.00 85 1009.3
20260903012308 18 188 0.0 0.0 0.00 0.00 0.00 82 1009.0
20260903011805 18 188 0.0 0.0 0.00 0.00 0.00 82 1009.0
20260903011308 18 188 0.0 0.0 0.00 0.00 0.00 81 1009.3
20260903010804 18 188 0.0 0.0 0.00 0.00 0.00 80 1009.0
20260903005804 19 246 0.0 0.0 0.00 0.00 0.00 80 1009.0
20260903005306 19 246 0.0 0.0 0.00 0.00 0.00 78 1009.0
20260903004803 20 246 0.0 0.0 0.00 0.00 0.00 78 1008.5
20260903004303 20 246 0.0 1.6 0.00 0.00 0.00 77 1008.5
20260903003801 20 246 0.0 1.6 0.00 0.00 0.00 75 1008.5
20260903002801 21 255 0.0 0.0 0.00 0.00 0.00 73 1008.5
20260903002306 21 255 0.0 0.0 0.00 0.00 0.00 72 1008.5
20260903001801 21 255 0.0 0.0 0.00 0.00 0.00 69 1008.5
20260903001304 21 255 0.0 0.0 0.00 0.00 0.00 71 1008.5
20260903000800 22 255 0.0 0.0 0.00 0.00 0.00 68 1008.5
20260903000303 22 255 0.0 1.6 0.00 0.00 0.00 66 1008.5
20260902235800 22 255 0.0 1.6 0.00 0.00 0.00 65 1008.5
20260902235301 23 254 0.0 1.6 0.00 0.00 0.00 65 1008.5
20260902234800 23 270 0.0 0.0 0.00 0.00 0.00 62 1009.0
20260902234259 25 320 0.0 0.0 0.00 0.00 0.00 60 1008.5
20260902233758 26 346 0.0 1.6 0.00 0.00 0.00 56 1009.0
20260902232758 25 254 0.0 3.2 0.00 0.00 0.00 61 1008.5
20260902232259 25 297 0.0 3.2 0.00 0.00 0.00 61 1009.0
20260902231259 24 255 0.0 3.2 0.00 0.00 0.00 60 1009.0
20260902230757 24 307 3.2 3.2 0.00 0.00 0.00 59 1009.0
20260902230257 25 278 0.0 3.2 0.00 0.00 0.00 58 1009.0
20260902225756 25 261 0.0 3.2 0.00 0.00 0.00 59 1009.0
20260902225258 24 255 1.6 3.2 0.00 0.00 0.00 58 1009.0
20260902224756 25 325 1.6 4.8 0.00 0.00 0.00 55 1009.0
20260902224258 25 270 0.0 4.8 0.00 0.00 0.00 55 1009.0
20260902223755 26 165 0.0 4.8 0.00 0.00 0.00 56 1009.0
20260902223256 25 270 0.0 6.4 0.00 0.00 0.00 55 1008.5
20260902222755 25 274 0.0 6.4 0.00 0.00 0.00 57 1008.5
20260902222256 25 278 0.0 8.0 0.00 0.00 0.00 56 1009.0
20260902221754 25 319 3.2 8.0 0.00 0.00 0.00 55 1008.5
20260902221255 25 332 3.2 6.4 0.00 0.00 0.00 53 1009.0
20260902220754 27 258 3.2 3.2 0.00 0.00 0.00 49 1008.5
20260902220255 26 325 0.0 6.4 0.00 0.00 0.00 53 1009.0
20260902215753 26 307 3.2 6.4 0.00 0.00 0.00 53 1009.0
20260902215253 26 248 3.2 4.8 0.00 0.00 0.00 53 1009.0
20260902214753 27 254 0.0 4.8 0.00 0.00 0.00 50 1009.0
20260902214253 25 322 3.2 8.0 0.00 0.00 0.00 54 1009.0
20260902213752 26 258 6.4 8.0 0.00 0.00 0.00 52 1009.3
20260902213252 26 344 0.0 6.4 0.00 0.00 0.00 53 1009.0
20260902212751 26 344 6.4 6.4 0.00 0.00 0.00 50 1009.0
20260902212252 26 198 3.2 4.8 0.00 0.00 0.00 51 1009.3
20260902211751 26 188 0.0 6.4 0.00 0.00 0.00 52 1009.0
20260902211252 25 289 1.6 8.0 0.00 0.00 0.00 51 1009.0
20260902210750 25 286 0.0 8.0 0.00 0.00 0.00 56 1009.0
20260902210251 26 294 0.0 6.4 0.00 0.00 0.00 54 1009.0
20260902205749 26 277 0.0 6.4 0.00 0.00 0.00 55 1009.0
20260902205250 27 237 0.0 3.2 0.00 0.00 0.00 53 1009.3
20260902204749 26 341 3.2 8.0 0.00 0.00 0.00 54 1009.3
20260902204250 25 252 3.2 6.4 0.00 0.00 0.00 54 1009.3
20260902203748 26 270 3.2 6.4 0.00 0.00 0.00 57 1009.3
20260902203250 26 301 0.0 6.4 0.00 0.00 0.00 53 1009.7
20260902202748 27 257 0.0 4.8 0.00 0.00 0.00 55 1009.3
20260902201746 25 283 3.2 9.7 0.00 0.00 0.00 57 1009.3
20260902201248 25 288 6.4 11.3 0.00 0.00 0.00 56 1009.7
20260902200746 25 278 0.0 11.3 0.00 0.00 0.00 56 1009.3
20260902195745 25 270 3.2 6.4 0.00 0.00 0.00 55 1009.7
20260902195247 25 300 1.6 6.4 0.00 0.00 0.00 55 1009.7
20260902194745 25 315 3.2 6.4 0.00 0.00 0.00 57 1009.3
20260902194246 24 285 0.0 6.4 0.00 0.00 0.00 57 1009.7
20260902193744 26 29 0.0 4.8 0.00 0.00 0.00 54 1009.7
20260902193246 26 303 3.2 14.5 0.00 0.00 0.00 56 1009.7
20260902192245 23 321 6.4 9.7 0.00 0.00 0.00 61 1009.7
20260902191743 24 236 3.2 9.7 0.00 0.00 0.00 59 1009.7
20260902191243 26 185 0.0 4.8 0.00 0.00 0.00 56 1009.7
20260902190244 26 325 0.0 8.0 0.00 0.00 0.00 55 1009.7
20260902185742 25 186 0.0 8.0 0.00 0.00 0.00 59 1009.7
20260902185242 24 270 1.6 6.4 0.00 0.00 0.00 56 1010.0
20260902184742 24 304 3.2 6.4 0.00 0.00 0.00 60 1010.0
20260902184243 24 287 6.4 6.4 0.00 0.00 0.00 57 1009.7
20260902183741 24 261 0.0 6.4 0.00 0.00 0.00 60 1009.7
20260902183241 23 270 1.6 4.8 0.00 0.00 0.00 62 1010.0